Date,TemperatureHighF,TemperatureAvgF,TemperatureLowF,DewpointHighF,DewpointAvgF,DewpointLowF,HumidityHigh,HumidityAvg,HumidityLow,PressureMaxIn,PressureMinIn,WindSpeedMaxMPH,WindSpeedAvgMPH,GustSpeedMaxMPH,PrecipitationSumIn
2013-3-1,56,52,47,-100,-100,-100,0,0,100,30.06,29.96,16,10,21,0.00
2013-3-2,51,46,42,-100,-100,-100,0,0,100,30.08,29.97,25,13,33,0.00
2013-3-3,45,41,38,-100,-100,-100,0,0,100,30.19,30.04,21,13,28,0.00
2013-3-4,56,47,37,-100,-100,-100,0,0,100,30.28,30.17,15,8,18,0.00
2013-3-5,72,60,47,-100,-100,-100,0,0,100,30.24,29.93,27,12,33,0.00
2013-3-6,64,52,45,-100,-100,-100,0,0,100,30.19,29.90,29,18,37,0.00
2013-3-7,56,47,39,-100,-100,-100,0,0,100,30.29,30.19,14,7,18,0.00
2013-3-8,57,53,48,-100,-100,-100,0,0,100,30.30,30.22,17,8,21,0.00
2013-3-9,60,57,51,-100,-100,-100,0,0,100,30.35,30.23,21,12,24,0.00
2013-3-10,69,63,58,-100,-100,-100,0,0,100,30.28,30.20,13,8,18,0.00
2013-3-11,72,66,60,-100,-100,-100,0,0,100,30.21,29.97,15,8,24,0.00
2013-3-12,68,65,58,-100,-100,-100,0,0,100,30.07,29.90,15,9,23,0.00
2013-3-13,67,58,49,-100,-100,-100,0,0,100,30.24,30.06,17,10,22,0.00
2013-3-14,58,49,43,-100,-100,-100,0,0,100,30.36,30.22,17,-19,23,0.00
2013-3-15,64,54,44,-100,-100,-100,0,0,100,30.34,30.18,11,6,17,0.00
2013-3-16,77,64,54,-100,-100,-100,0,0,100,30.22,30.04,17,12,23,0.00
2013-3-17,73,64,54,-100,-100,-100,0,0,100,30.18,30.05,13,8,19,0.00
2013-3-18,77,67,62,-100,-100,-100,0,0,100,30.12,29.93,15,-50,19,0.00
2013-3-19,77,68,62,-100,-100,-100,0,0,100,30.07,29.93,22,-6,39,0.00
2013-3-20,66,60,55,-100,-100,-100,0,0,100,30.08,29.90,25,12,32,0.00
2013-3-21,65,55,46,-100,-100,-100,0,0,100,30.01,29.91,16,8,22,0.00
2013-3-22,60,56,52,-100,-100,-100,0,0,100,30.13,29.99,19,10,23,0.00
2013-3-23,70,62,56,-100,-100,-100,0,0,100,30.07,29.85,22,1,26,0.00
2013-3-24,82,72,62,-100,-100,-100,0,0,100,29.86,29.58,23,14,32,0.00
2013-3-25,70,59,49,-100,-100,-100,0,0,100,30.08,29.65,27,17,35,0.00
2013-3-26,53,47,41,-100,-100,-100,0,0,100,30.31,30.08,25,13,32,0.00
2013-3-27,54,46,37,-100,-100,-100,0,0,100,30.36,30.27,15,7,20,0.00
2013-3-28,60,52,43,-100,-100,-100,0,0,100,30.36,30.28,17,-21,20,0.00
2013-3-29,63,56,48,-100,-100,-100,0,0,100,30.39,30.28,14,6,15,0.00
2013-3-30,73,62,51,-100,-100,-100,0,0,100,30.32,30.17,16,7,21,0.00
2013-3-31,78,67,56,-100,-100,-100,0,0,100,30.20,30.02,20,10,26,0.00